Location: *
(2.5500°S, 65.9667°W)
Time: 07:10:35
(UTC+00:00)

Explorer 7 - Pass Details

Date: 25 April 2024
Orbit: 467 x 625 km, 50.3° (Epoch: 26 May)

Event Time Altitude Azimuth Distance (km) Brightness Sun altitude
Rises 21:10:38 0° 356° (N) 2,771 10.7 16.6°
Reaches altitude 10° 21:14:10 10° 26° (NNE) 1,835 9.4 15.8°
Maximum altitude 21:15:57 12° 51° (NE) 1,660 9.0 15.3°
Drops below altitude 10° 21:17:43 10° 77° (ENE) 1,794 9.0 14.9°
Sets 21:21:04 0° 107° (ESE) 2,644 9.6 14.1°
